FW3211 Weather Reports


Display with metric or nautical units.
time (UTC)temp
F
wind
direction
speed
MPH
gust
MPH
rain 1hr
in
rain 24hr
in
rain mn
in
humidity
%
barometer
mb
20260904193307 75 341 2.0 3.0 0.00 0.00 0.00 54 1021.4
20260904193045 75 341 2.0 3.0 0.00 0.00 0.00 52 1021.4
20260904192306 75 341 2.0 3.0 0.00 0.00 0.00 54 1021.4
20260904191838 75 341 2.0 3.0 0.00 0.00 0.00 51 1021.4
20260904191825 75 341 2.0 3.0 0.00 0.00 0.00 54 1021.4
20260904190817 75 341 2.0 3.0 0.00 0.00 0.00 51 1021.4
20260904190305 75 341 2.0 3.0 0.00 0.00 0.00 50 1021.4
20260904185805 75 341 2.0 3.0 0.00 0.00 0.00 48 1021.3
20260904185306 75 341 2.0 3.0 0.00 0.00 0.00 48 1021.3
20260904184806 75 341 3.0 3.0 0.00 0.00 0.00 48 1021.2
20260904184305 75 341 2.0 3.0 0.00 0.00 0.00 48 1021.2
20260904183805 75 343 2.0 4.0 0.00 0.00 0.00 50 1021.2
20260904183552 75 343 2.0 4.0 0.00 0.00 0.00 49 1021.1
20260904182805 75 343 2.0 3.0 0.00 0.00 0.00 49 1021.1
20260904182306 75 343 2.0 3.0 0.00 0.00 0.00 48 1021.0
20260904181806 75 343 2.0 3.0 0.00 0.00 0.00 48 1021.1
20260904181547 75 344 3.0 3.0 0.00 0.00 0.00 47 1021.1
20260904180805 75 344 3.0 4.0 0.00 0.00 0.00 47 1021.0
20260904180306 75 347 2.0 4.0 0.00 0.00 0.00 49 1021.0
20260904175806 76 347 2.0 3.0 0.00 0.00 0.00 52 1020.9
20260904175306 76 348 2.0 3.0 0.00 0.00 0.00 53 1021.0
20260904174807 76 342 2.0 3.0 0.00 0.00 0.00 54 1020.9
20260904174307 76 339 2.0 3.0 0.00 0.00 0.00 55 1020.9
20260904173806 76 339 2.0 3.0 0.00 0.00 0.00 55 1020.9
20260904173306 76 347 2.0 3.0 0.00 0.00 0.00 54 1020.9
20260904172808 76 347 2.0 3.0 0.00 0.00 0.00 54 1021.0
20260904172306 76 347 2.0 3.0 0.00 0.00 0.00 54 1020.9
20260904171808 76 341 2.0 3.0 0.00 0.00 0.00 54 1021.0
20260904171308 76 341 2.0 3.0 0.00 0.00 0.00 56 1021.0
20260904170807 76 341 2.0 3.0 0.00 0.00 0.00 58 1021.1
20260904170306 76 341 2.0 3.0 0.00 0.00 0.00 59 1021.1
20260904165800 76 342 2.0 3.0 0.00 0.00 0.00 61 1021.2
20260904165251 77 342 2.0 3.0 0.00 0.00 0.00 61 1021.1
20260904164741 77 337 2.0 3.0 0.00 0.00 0.00 59 1021.2
20260904164235 77 334 2.0 3.0 0.00 0.00 0.00 60 1021.2
20260904164024 77 350 2.0 3.0 0.00 0.00 0.00 63 1021.2
20260904163232 77 350 2.0 3.0 0.00 0.00 0.00 63 1021.3
20260904162733 77 4 2.0 3.0 0.00 0.00 0.00 62 1021.3
20260904162232 77 4 2.0 3.0 0.00 0.00 0.00 65 1021.4
20260904161732 77 4 2.0 3.0 0.00 0.00 0.00 66 1021.3
20260904161233 77 4 2.0 3.0 0.00 0.00 0.00 66 1021.4
20260904160732 77 4 2.0 3.0 0.00 0.00 0.00 65 1021.3
20260904160325 77 4 2.0 3.0 0.00 0.00 0.00 62 1021.4
20260904160304 77 4 2.0 3.0 0.00 0.00 0.00 64 1021.4
20260904155232 77 16 2.0 3.0 0.00 0.00 0.00 60 1021.4
20260904154734 77 16 2.0 3.0 0.00 0.00 0.00 60 1021.4
20260904154234 77 16 2.0 3.0 0.00 0.00 0.00 63 1021.4
20260904154047 77 16 2.0 2.0 0.00 0.00 0.00 65 1021.4
20260904153533 77 16 1.0 2.0 0.00 0.00 0.00 65 1021.5
20260904152726 78 16 1.0 2.0 0.00 0.00 0.00 64 1021.4
20260904152225 78 16 1.0 3.0 0.00 0.00 0.00 64 1021.5
20260904151726 78 16 1.0 3.0 0.00 0.00 0.00 63 1021.6
20260904151224 78 16 2.0 3.0 0.00 0.00 0.00 62 1021.6
20260904150723 78 16 2.0 3.0 0.00 0.00 0.00 60 1021.7
20260904150501 79 16 2.0 3.0 0.00 0.00 0.00 59 1021.7
20260904145724 79 16 2.0 3.0 0.00 0.00 0.00 58 1021.7
20260904145221 80 17 1.0 3.0 0.00 0.00 0.00 59 1021.8
20260904144721 80 68 1.0 3.0 0.00 0.00 0.00 61 1021.8
20260904144220 81 68 1.0 3.0 0.00 0.00 0.00 62 1022.0
20260904143959 82 116 1.0 3.0 0.00 0.00 0.00 61 1022.0
20260904143217 82 116 1.0 4.0 0.00 0.00 0.00 60 1022.0
20260904142717 82 116 1.0 4.0 0.00 0.00 0.00 58 1022.0
20260904142216 83 117 1.0 3.0 0.00 0.00 0.00 60 1022.1
20260904141957 83 118 1.0 3.0 0.00 0.00 0.00 61 1022.0
20260904141247 83 154 1.0 5.0 0.00 0.00 0.00 62 1022.1
20260904141234 83 118 1.0 3.0 0.00 0.00 0.00 62 1022.0
20260904140213 82 154 2.0 5.0 0.00 0.00 0.00 61 1022.1
20260904135711 82 199 2.0 8.0 0.00 0.00 0.00 58 1022.0
20260904135209 82 91 3.0 8.0 0.00 0.00 0.00 55 1022.0
20260904134745 81 147 2.0 6.0 0.00 0.00 0.00 62 1022.1
20260904134733 82 148 2.0 6.0 0.00 0.00 0.00 59 1022.1
20260904133710 82 153 2.0 5.0 0.00 0.00 0.00 67 1022.0
20260904133211 82 187 2.0 6.0 0.00 0.00 0.00 68 1022.0
20260904132714 82 154 3.0 7.0 0.00 0.00 0.00 68 1022.0
20260904132210 82 119 2.0 7.0 0.00 0.00 0.00 67 1022.0
20260904131715 82 99 3.0 5.0 0.00 0.00 0.00 68 1022.0
20260904131210 82 199 3.0 7.0 0.00 0.00 0.00 67 1022.0
20260904130712 82 70 2.0 7.0 0.00 0.00 0.00 67 1022.1
20260904130210 82 83 2.0 6.0 0.00 0.00 0.00 66 1022.1
20260904125707 82 126 2.0 6.0 0.00 0.00 0.00 68 1022.2
20260904125210 82 106 2.0 6.0 0.00 0.00 0.00 67 1022.1
20260904124707 82 92 3.0 8.0 0.00 0.00 0.00 67 1022.2
20260904124205 82 102 3.0 8.0 0.00 0.00 0.00 67 1022.3
20260904123709 82 145 2.0 6.0 0.00 0.00 0.00 66 1022.3
20260904123207 82 114 2.0 6.0 0.00 0.00 0.00 65 1022.3
20260904122706 83 136 2.0 7.0 0.00 0.00 0.00 64 1022.3
20260904122447 83 155 3.0 7.0 0.00 0.00 0.00 64 1022.4
20260904121710 83 173 2.0 6.0 0.00 0.00 0.00 63 1022.4
20260904121444 84 201 3.0 7.0 0.00 0.00 0.00 63 1022.4
20260904120703 83 181 2.0 7.0 0.00 0.00 0.00 63 1022.3
20260904120204 83 99 2.0 5.0 0.00 0.00 0.00 57 1022.3
20260904115704 83 200 2.0 5.0 0.00 0.00 0.00 62 1022.3
20260904115205 83 114 2.0 5.0 0.00 0.00 0.00 65 1022.3
20260904114704 83 148 2.0 5.0 0.00 0.00 0.00 64 1022.3
20260904114453 83 189 2.0 6.0 0.00 0.00 0.00 64 1022.4
20260904113941 84 166 3.0 7.0 0.00 0.00 0.00 63 1022.3
20260904113205 84 181 2.0 7.0 0.00 0.00 0.00 63 1022.3
20260904112707 84 112 2.0 7.0 0.00 0.00 0.00 61 1022.3
20260904112204 84 216 3.0 7.0 0.00 0.00 0.00 63 1022.3
20260904111705 84 197 3.0 7.0 0.00 0.00 0.00 63 1022.3
20260904111203 83 147 3.0 7.0 0.00 0.00 0.00 62 1022.4
20260904110706 83 118 3.0 7.0 0.00 0.00 0.00 62 1022.4
20260904110203 83 143 3.0 7.0 0.00 0.00 0.00 62 1022.4
20260904105706 83 127 3.0 7.0 0.00 0.00 0.00 62 1022.4
20260904105203 83 116 2.0 6.0 0.00 0.00 0.00 62 1022.3
20260904104703 83 162 3.0 6.0 0.00 0.00 0.00 62 1022.3
20260904104456 83 130 2.0 6.0 0.00 0.00 0.00 62 1022.4
20260904103705 83 184 2.0 7.0 0.00 0.00 0.00 63 1022.4
20260904103204 83 129 3.0 7.0 0.00 0.00 0.00 63 1022.4
20260904102704 83 152 3.0 6.0 0.00 0.00 0.00 63 1022.4
20260904102206 83 226 2.0 7.0 0.00 0.00 0.00 61 1022.5
20260904101952 83 121 2.0 7.0 0.00 0.00 0.00 62 1022.5
20260904101203 83 187 2.0 5.0 0.00 0.00 0.00 60 1022.5
20260904100704 83 151 2.0 5.0 0.00 0.00 0.00 62 1022.6
20260904100204 83 178 2.0 7.0 0.00 0.00 0.00 61 1022.6
20260904095703 83 74 2.0 7.0 0.00 0.00 0.00 61 1022.6
20260904095445 83 152 3.0 7.0 0.00 0.00 0.00 61 1022.7
20260904094702 83 110 3.0 7.0 0.00 0.00 0.00 60 1022.6
20260904094200 83 91 2.0 6.0 0.00 0.00 0.00 61 1022.6
20260904093659 83 167 2.0 4.0 0.00 0.00 0.00 59 1022.6
20260904093159 82 125 2.0 4.0 0.00 0.00 0.00 58 1022.6
20260904092659 82 111 2.0 4.0 0.00 0.00 0.00 60 1022.6
20260904092200 82 151 2.0 6.0 0.00 0.00 0.00 59 1022.6
20260904091701 82 129 2.0 6.0 0.00 0.00 0.00 59 1022.7
20260904091157 82 149 2.0 5.0 0.00 0.00 0.00 58 1022.7
20260904090657 82 135 2.0 4.0 0.00 0.00 0.00 58 1022.6
20260904090158 82 168 2.0 4.0 0.00 0.00 0.00 59 1022.6
20260904085657 82 174 2.0 5.0 0.00 0.00 0.00 57 1022.6
20260904085158 81 108 2.0 5.0 0.00 0.00 0.00 61 1022.6
20260904084655 81 136 2.0 4.0 0.00 0.00 0.00 62 1022.5
20260904084156 81 169 2.0 4.0 0.00 0.00 0.00 61 1022.5
20260904083939 80 152 2.0 4.0 0.00 0.00 0.00 63 1022.5
20260904083152 80 141 1.0 5.0 0.00 0.00 0.00 63 1022.5
20260904082934 80 157 1.0 5.0 0.00 0.00 0.00 64 1022.6
20260904082150 80 158 2.0 5.0 0.00 0.00 0.00 62 1022.6
20260904081644 80 163 2.0 4.0 0.00 0.00 0.00 63 1022.6
20260904081139 80 150 2.0 6.0 0.00 0.00 0.00 62 1022.5
20260904080635 80 105 2.0 6.0 0.00 0.00 0.00 62 1022.5
20260904080135 80 193 2.0 4.0 0.00 0.00 0.00 62 1022.4
20260904075636 80 152 2.0 5.0 0.00 0.00 0.00 62 1022.4
20260904075136 80 170 2.0 5.0 0.00 0.00 0.00 61 1022.3
20260904074633 80 177 2.0 4.0 0.00 0.00 0.00 59 1022.3
20260904074133 80 119 1.0 3.0 0.00 0.00 0.00 64 1022.3
20260904073634 80 115 1.0 3.0 0.00 0.00 0.00 63 1022.2
20260904073140 80 115 1.0 3.0 0.00 0.00 0.00 65 1022.2
20260904072633 80 114 1.0 3.0 0.00 0.00 0.00 64 1022.1
20260904072134 80 113 1.0 3.0 0.00 0.00 0.00 60 1022.1
20260904071635 80 112 1.0 3.0 0.00 0.00 0.00 65 1022.1
20260904071136 80 72 1.0 3.0 0.00 0.00 0.00 59 1022.0
20260904070942 80 72 1.0 2.0 0.00 0.00 0.00 61 1022.0
20260904070134 80 72 1.0 2.0 0.00 0.00 0.00 62 1022.0
20260904065713 79 72 1.0 2.0 0.00 0.00 0.00 64 1021.8
20260904065700 79 72 1.0 2.0 0.00 0.00 0.00 61 1021.8
20260904064922 79 72 1.0 2.0 0.00 0.00 0.00 64 1021.8
20260904064134 79 72 1.0 2.0 0.00 0.00 0.00 65 1021.8
20260904063637 78 72 1.0 2.0 0.00 0.00 0.00 65 1021.7
20260904063133 78 72 1.0 2.0 0.00 0.00 0.00 65 1021.7
20260904062645 78 72 1.0 3.0 0.00 0.00 0.00 65 1021.7
20260904062133 78 72 1.0 3.0 0.00 0.00 0.00 64 1021.7
20260904061633 78 72 1.0 3.0 0.00 0.00 0.00 62 1021.7
20260904061134 79 72 1.0 3.0 0.00 0.00 0.00 63 1021.7
20260904060633 79 72 1.0 2.0 0.00 0.00 0.00 59 1021.7
20260904060132 79 4 0.0 2.0 0.00 0.00 0.00 60 1021.7
20260904055910 79 4 0.0 2.0 0.00 0.00 0.00 62 1021.7
20260904055129 79 4 0.0 1.0 0.00 0.00 0.00 60 1021.6
20260904054901 78 4 0.0 1.0 0.00 0.00 0.00 60 1021.6
20260904054121 78 4 0.0 1.0 0.00 0.00 0.00 60 1021.6
20260904053614 77 4 0.0 0.0 0.00 0.00 0.00 63 1021.6
20260904053112 76 4 0.0 2.0 0.00 0.00 0.00 63 1021.6
20260904052611 75 4 0.0 2.0 0.00 0.00 0.00 64 1021.5
20260904052115 75 4 1.0 2.0 0.00 0.00 0.00 66 1021.5
20260904051607 74 4 1.0 2.0 0.00 0.00 0.00 66 1021.5
20260904051347 74 4 1.0 3.0 0.00 0.00 0.00 65 1021.5
20260904050617 73 4 1.0 3.0 0.00 0.00 0.00 64 1021.5
20260904050119 73 4 1.0 2.0 0.00 0.00 0.00 64 1021.4
20260904045602 73 4 2.0 3.0 0.00 0.00 0.00 63 1021.3
20260904045103 74 4 2.0 3.0 0.00 0.00 0.00 64 1021.3
20260904044602 74 4 2.0 2.0 0.00 0.00 0.00 65 1021.3
20260904044101 74 4 1.0 2.0 0.00 0.00 0.00 65 1021.3
20260904043558 74 4 2.0 2.0 0.00 0.00 0.00 66 1021.2
20260904043343 74 4 2.0 2.0 0.00 0.00 0.00 65 1021.2
20260904042557 74 4 1.0 2.0 0.00 0.00 0.00 66 1021.2
20260904042100 74 4 2.0 3.0 0.00 0.00 0.00 67 1021.2
20260904041556 74 4 2.0 3.0 0.00 0.00 0.00 67 1021.1
20260904041332 74 4 2.0 3.0 0.00 0.00 0.00 65 1021.1
20260904040548 74 4 2.0 3.0 0.00 0.00 0.00 66 1021.0
20260904040045 74 4 2.0 2.0 0.00 0.00 0.00 66 1021.0
20260904035545 74 4 2.0 3.0 0.00 0.00 0.00 66 1021.1
20260904035042 74 4 2.0 3.0 0.00 0.00 0.00 66 1021.1
20260904034541 74 4 2.0 3.0 0.00 0.00 0.00 66 1021.1
20260904034038 74 4 2.0 3.0 0.00 0.00 0.00 66 1021.2
20260904033910 74 4 2.0 2.0 0.00 0.00 0.00 64 1021.2
20260904033606 74 4 2.0 2.0 0.00 0.00 0.00 65 1021.2
20260904032538 74 4 2.0 2.0 0.00 0.00 0.00 63 1021.2
20260904032040 74 4 2.0 3.0 0.00 0.00 0.00 59 1021.2
20260904031541 74 4 2.0 3.0 0.00 0.00 0.00 56 1021.1
20260904031040 74 4 2.0 3.0 0.00 0.00 0.00 56 1021.1
20260904030538 74 4 2.0 3.0 0.00 0.00 0.00 54 1021.1
20260904030036 74 4 2.0 3.0 0.00 0.00 0.00 52 1021.1
20260904025528 74 4 2.0 3.0 0.00 0.00 0.00 53 1021.1
20260904025022 74 4 2.0 4.0 0.00 0.00 0.00 56 1021.1
20260904024523 74 4 2.0 4.0 0.00 0.00 0.00 57 1021.0
20260904024022 74 4 2.0 3.0 0.00 0.00 0.00 54 1021.0
20260904023522 74 4 2.0 3.0 0.00 0.00 0.00 54 1021.1
20260904023024 74 4 2.0 3.0 0.00 0.00 0.00 58 1021.1
20260904022519 74 4 2.0 3.0 0.00 0.00 0.00 59 1021.1
20260904022029 74 4 2.0 3.0 0.00 0.00 0.00 58 1021.2
20260904021518 75 4 2.0 3.0 0.00 0.00 0.00 57 1021.3
20260904021016 75 4 2.0 3.0 0.00 0.00 0.00 57 1021.2
20260904020515 75 4 2.0 3.0 0.00 0.00 0.00 58 1021.2
20260904020021 75 4 2.0 3.0 0.00 0.00 0.00 57 1021.2
20260904015517 75 4 2.0 3.0 0.00 0.00 0.00 57 1021.2
20260904015013 75 4 2.0 3.0 0.00 0.00 0.00 54 1021.2
20260904014516 75 4 2.0 3.0 0.00 0.00 0.00 54 1021.2
20260904014028 75 4 2.0 3.0 0.00 0.00 0.00 54 1021.2
20260904013512 75 349 2.0 3.0 0.00 0.00 0.00 55 1021.1
20260904013012 75 349 3.0 4.0 0.00 0.00 0.00 55 1021.2
20260904012512 75 349 3.0 4.0 0.00 0.00 0.00 55 1021.1
20260904012012 76 359 2.0 3.0 0.00 0.00 0.00 56 1021.1
20260904011511 76 354 2.0 3.0 0.00 0.00 0.00 57 1021.1
20260904011008 76 338 2.0 3.0 0.00 0.00 0.00 56 1021.1
20260904010509 76 338 2.0 3.0 0.00 0.00 0.00 56 1021.1
20260904010008 76 337 2.0 3.0 0.00 0.00 0.00 55 1021.1
20260904005510 76 337 2.0 3.0 0.00 0.00 0.00 56 1021.0
20260904005255 76 337 2.0 3.0 0.00 0.00 0.00 53 1021.0
20260904004508 76 337 2.0 3.0 0.00 0.00 0.00 55 1021.0
20260904004007 76 337 2.0 4.0 0.00 0.00 0.00 53 1021.0
20260904003506 76 321 2.0 4.0 0.00 0.00 0.00 53 1021.0
20260904003250 76 300 2.0 3.0 0.00 0.00 0.00 57 1021.0
20260904002510 76 300 2.0 3.0 0.00 0.00 0.00 55 1021.1
20260904002010 76 300 2.0 4.0 0.00 0.00 0.00 56 1021.1
20260904001507 76 293 2.0 4.0 0.00 0.00 0.00 55 1021.1
20260904001006 76 338 2.0 4.0 0.00 0.00 0.00 57 1021.2
20260904000506 76 339 2.0 3.0 0.00 0.00 0.00 57 1021.2
20260904000016 75 347 2.0 3.0 0.00 0.00 0.00 57 1021.3
20260903235802 75 4 2.0 3.0 0.00 0.00 0.00 57 1021.2
20260903235011 75 4 2.0 4.0 0.00 0.00 0.00 55 1021.3
20260903234511 75 4 2.0 4.0 0.00 0.00 0.00 53 1021.3
20260903234256 75 4 2.0 3.0 0.00 0.00 0.00 52 1021.2
20260903233508 75 4 2.0 3.0 0.00 0.00 0.00 53 1021.2
20260903233008 75 340 2.0 3.0 0.00 0.00 0.00 53 1021.3
20260903232515 75 340 2.0 3.0 0.00 0.00 0.00 53 1021.2
20260903232258 75 340 2.0 3.0 0.00 0.00 0.00 52 1021.2
20260903231949 75 340 2.0 3.0 0.00 0.00 0.00 52 1021.2
20260903231601 75 340 2.0 3.0 0.00 0.00 0.00 53 1021.2
20260903230507 75 338 2.0 3.0 0.00 0.00 0.00 53 1021.3
20260903230006 75 337 3.0 4.0 0.00 0.00 0.00 55 1021.3
20260903225507 75 337 3.0 4.0 0.00 0.00 0.00 57 1021.4
20260903225008 75 335 3.0 4.0 0.00 0.00 0.00 57 1021.4
20260903224507 75 334 3.0 4.0 0.00 0.00 0.00 56 1021.3
20260903224005 74 335 3.0 4.0 0.00 0.00 0.00 56 1021.3
20260903223747 74 340 3.0 4.0 0.00 0.00 0.00 58 1021.3
20260903223001 74 315 2.0 4.0 0.00 0.00 0.00 61 1021.2
20260903222503 74 302 2.0 4.0 0.00 0.00 0.00 63 1021.2
20260903222311 74 341 3.0 4.0 0.00 0.00 0.00 64 1021.2
20260903221743 74 316 3.0 4.0 0.00 0.00 0.00 58 1021.2
20260903220956 74 333 2.0 3.0 0.00 0.00 0.00 60 1021.3
20260903220743 74 342 3.0 3.0 0.00 0.00 0.00 61 1021.3
20260903215956 74 337 3.0 3.0 0.00 0.00 0.00 65 1021.4
20260903215733 74 354 3.0 4.0 0.00 0.00 0.00 67 1021.3
20260903214957 75 301 3.0 4.0 0.00 0.00 0.00 69 1021.2
20260903214455 75 354 3.0 4.0 0.00 0.00 0.00 70 1021.2
20260903213950 75 354 2.0 4.0 0.00 0.00 0.00 71 1021.3
20260903213443 75 341 2.0 4.0 0.00 0.00 0.00 74 1021.3
20260903212941 75 341 2.0 3.0 0.00 0.00 0.00 74 1021.3
20260903212443 75 316 2.0 3.0 0.00 0.00 0.00 75 1021.3
20260903212223 75 316 2.0 3.0 0.00 0.00 0.00 75 1021.4
20260903211439 75 314 2.0 3.0 0.00 0.00 0.00 74 1021.3
20260903210937 75 314 2.0 3.0 0.00 0.00 0.00 74 1021.3
20260903210437 75 312 2.0 3.0 0.00 0.00 0.00 75 1021.2
20260903210240 75 312 2.0 3.0 0.00 0.00 0.00 75 1021.2
20260903205714 75 312 2.0 3.0 0.00 0.00 0.00 75 1021.1
20260903204935 75 312 2.0 3.0 0.00 0.00 0.00 75 1021.1
20260903204434 75 309 2.0 3.0 0.00 0.00 0.00 75 1021.1
20260903203933 75 308 2.0 3.0 0.00 0.00 0.00 75 1021.2
20260903203432 75 308 2.0 3.0 0.00 0.00 0.00 75 1021.2
20260903202934 75 308 2.0 3.0 0.00 0.00 0.00 75 1021.2
20260903202432 75 308 2.0 3.0 0.00 0.00 0.00 75 1021.2
20260903201933 75 301 2.0 3.0 0.00 0.00 0.00 76 1021.2
20260903201436 75 286 2.0 3.0 0.00 0.00 0.00 76 1021.1
20260903200943 75 286 2.0 3.0 0.00 0.00 0.00 76 1021.1
20260903200433 75 286 1.0 3.0 0.00 0.00 0.00 76 1021.2
20260903200018 75 286 2.0 3.0 0.00 0.00 0.00 76 1021.1
20260903195958 75 286 2.0 2.0 0.00 0.00 0.00 76 1021.1
20260903195217 75 286 2.0 3.0 0.00 0.00 0.00 76 1021.1
20260903194432 75 278 2.0 3.0 0.00 0.00 0.00 76 1021.1
20260903193934 75 278 2.0 3.0 0.00 0.00 0.00 76 1021.0